Location: Lake of the Woods (North-East)
(49.6672°N, 94.8656°W)
Time: 21:15:12
(UTC-05:00)

Daily predictions for brighter satellites

Satellite Brightness Start Highest point End
(mag) Time Altitude Azimuth Time Altitude Azimuth Time Altitude Azimuth
Cosmos 2074 Rocket 4.4 21:40:54 10° NNW 21:47:08 69° W 21:53:20 10° S
Cosmos 1452 Rocket 4.4 21:44:39 10° N 21:49:33 37° NE 21:54:24 10° ESE
Cosmos 1980 Rocket 3.7 21:45:22 10° NNW 21:50:06 26° NE 21:54:46 10° E
Cosmos 2184 Rocket 4.5 21:44:09 10° NNW 21:50:29 68° W 21:56:42 10° S
Cosmos 2058 Rocket 3.9 21:48:06 10° N 21:52:12 36° ENE 21:56:19 10° SE
Cosmos 405 Rocket 3.5 21:49:37 10° SSW 21:53:21 57° WNW 21:57:12 10° N
Aureole 1 Rocket 2.0 21:51:17 10° SSW 21:54:25 79° ESE 21:57:24 10° NNE
YAOGAN 11 4.3 21:53:01 10° SSE 21:57:15 60° ENE 22:01:33 10° N
SPOT 1/Viking Rocket 4.1 21:52:23 10° SE 21:57:16 44° ENE 22:02:08 10° N
Cosmos 1371 Rocket 4.2 21:52:02 10° NNW 21:57:23 77° WSW 22:02:39 10° SSE
Tiangong 2 2.6 21:55:42 10° SW 21:58:07 20° SSE 22:00:31 10° ESE
Cosmos 2322 Rocket 4.4 21:56:22 10° N 21:59:54 16° NNE 22:03:25 10° ENE
Okean 2 3.6 21:56:20 10° S 22:00:18 53° E 22:04:19 10° NNE
Lacrosse 5 rocket 3.3 21:56:58 10° WNW 22:01:09 33° N 22:05:22 10° ENE
Cosmos 1441 Rocket 3.2 21:58:19 10° SSW 22:02:03 84° WNW 22:05:49 10° N
ARGOS 3.3 21:59:22 10° SSE 22:04:45 69° ENE 22:10:10 10° N
Meteor 1-29 3.9 22:02:42 10° N 22:06:01 51° WNW 22:09:17 10° SSW
Resurs 01 Rocket 4.4 22:05:37 10° WSW 22:07:48 13° W 22:09:59 10° WNW
ERS-1 Rocket 3.3 22:03:13 10° S 22:08:13 69° WSW 22:13:15 10° NNW
Meteor 1-23 Rocket 4.2 22:03:23 10° S 22:08:58 83° E 22:14:39 10° NNE
NOAA 11 4.3 22:06:44 10° SSE 22:12:11 81° WSW 22:17:39 10° NNW
Terra 3.0 22:08:12 10° ESE 22:12:17 29° ENE 22:16:23 10° N
SPOT 5 2.6 22:09:52 10° SSE 22:14:11 77° ENE 22:18:36 10° NNW
H-2A R/B 3.3 22:15:12 10° SE 22:19:09 31° ENE 22:23:07 10° N
Nadezhda 1 Rocket 4.5 22:17:55 10° SSW 22:24:15 67° WNW 22:30:40 10° N
MetOp-B 4.4 22:19:16 10° S 22:24:36 70° WSW 22:29:58 10° NNW
Cosmos 2278 3.8 22:20:07 10° NNW 22:25:52 79° WSW 22:31:15 11° SSE
ATLAS CENTAUR R/B 3.6 22:23:36 10° NNW 22:25:56 16° NNE 22:28:15 10° ENE
COSMOS 2406 4.2 22:22:00 10° SW 22:27:35 52° NW 22:33:11 10° NNE
Cosmos 2082 Rocket 2.8 22:24:45 10° S 22:29:51 35° ESE 22:34:57 10° NE
USA 229 DEB 4.2 22:25:01 10° NW 22:32:03 61° NE 22:39:05 11° ESE
USA 229 4.2 22:25:07 10° NW 22:32:09 60° NE 22:39:12 11° ESE
SL-8 Rocket 4.1 22:26:19 10° N 22:32:35 70° ENE 22:38:28 12° SSE
MOS 1-B Rocket 4.5 22:27:27 10° S 22:33:16 63° W 22:39:56 10° NNW
ISS -3.9 22:30:32 10° WSW 22:33:48 64° SSE 22:37:05 10° ENE
Cosmos 2366 rocket 4.2 22:32:14 10° N 22:38:21 58° ENE 22:43:33 14° SSE
SL-24 DEB 4.3 22:36:02 10° S 22:40:39 83° W 22:45:20 10° N
Cosmos 2228 3.0 22:38:13 10° N 22:42:33 86° W 22:46:19 13° S
H-2A R/B 2.0 22:40:27 13° SSE 22:44:58 87° WSW 22:50:06 10° NNW
USA 234 4.2 22:39:05 10° ENE 22:45:17 48° N 22:51:30 10° WNW
Cosmos 921 Rocket 3.7 22:40:58 10° NNW 22:45:21 51° WSW 22:49:22 11° S
Cosmos 2369 4.1 22:40:00 10° NW 22:45:38 58° WSW 22:50:41 13° S
Meteor 1-4 Rocket 2.5 22:42:40 10° N 22:46:19 68° ENE 22:48:46 19° SSE
Cosmos 1697 Rocket 2.7 22:40:47 10° NNW 22:46:26 81° ENE 22:50:57 16° SSE
SL-16 R/B 3.7 22:47:28 10° NNW 22:52:20 28° NE 22:57:11 10° ESE
Cosmos 1656 3.8 22:48:15 10° NNW 22:53:40 68° WSW 22:58:04 16° SSE
SL-08 RB Rocket 4.3 22:50:33 11° S 22:54:48 53° W 22:59:12 10° NNW
Cosmos 967 Rocket 4.4 22:49:23 10° SSW 22:55:40 83° SE 23:02:00 10° NE
Cosmos 1892 Rocket 4.0 22:53:47 10° SSW 22:58:10 63° WNW 23:02:34 10° N
DMSP B5D2-2 4.2 22:56:50 10° NNE 23:02:06 61° ESE 23:06:34 14° S
Cosmos 1271 Rocket 3.4 22:58:42 10° N 23:02:25 42° ENE 23:04:38 21° SE
Cosmos 1602 Rocket 3.7 23:01:03 18° SSE 23:04:03 54° E 23:08:17 10° NNE
Cosmos 1833 Rocket 2.7 23:01:24 10° SSW 23:06:55 61° ESE 23:12:29 10° NE
deb Chang Zheng 4 4.0 23:05:02 10° NNE 23:09:11 45° E 23:11:40 22° SSE
SL-08 R/B 4.5 23:06:33 10° N 23:12:42 84° W 23:17:35 17° S
Timation 2 Rocket 4.2 23:08:52 13° S 23:14:13 47° ESE 23:20:04 10° NE
Cosmos 389 Rocket 3.8 23:13:29 10° N 23:16:32 27° ENE 23:17:59 20° ESE
Cosmos 1953 3.4 23:13:16 10° N 23:17:00 33° ENE 23:19:02 21° ESE
Cosmos 1420 Rocket 4.1 23:12:39 10° NNW 23:17:55 72° WSW 23:21:26 21° S
Cosmos 2218 Rocket 4.2 23:12:49 10° NNW 23:18:57 68° W 23:24:06 15° S
Meteor 2-14 Rocket 4.4 23:15:22 10° N 23:21:30 89° W 23:25:54 20° S
Cosmos 1066 Rocket 4.3 23:16:11 10° SSW 23:21:42 79° WNW 23:27:25 10° N
COSMOS 2487 3.3 23:18:27 10° SW 23:21:56 51° WNW 23:25:27 10° NNE
DELTA 2 DEB (DPAF) 4.4 23:20:03 23° SE 23:22:41 58° ENE 23:27:06 10° N
Cosmos 1048 Rocket 4.2 23:22:41 21° S 23:25:57 51° ESE 23:30:59 10° NNE
CARTOSAT-1 3.9 23:27:22 21° S 23:30:07 58° W 23:34:24 10° NNW
Cosmos 1766 3.4 23:29:03 10° NNW 23:32:57 67° W 23:35:01 26° S
Cosmos 2360 Rocket 3.9 23:28:17 10° NNW 23:32:59 26° NE 23:37:39 10° E
Tiangong 2 2.9 23:31:45 10° WSW 23:33:11 18° SW 23:33:11 18° SW
Cosmos 1544 3.0 23:30:48 10° N 23:34:26 78° E 23:35:56 33° SSE
Cosmos 1980 Rocket 2.2 23:29:01 10° NNW 23:34:42 74° WSW 23:38:08 24° SSE
Lacrosse 5 rocket 2.2 23:36:33 10° NW 23:41:08 57° NNE 23:45:12 13° ESE
Meteor 1-21 4.2 23:39:12 20° S 23:43:14 81° E 23:49:01 10° NNE
Cosmos 2322 Rocket 2.6 23:39:37 10° NNW 23:45:15 57° NE 23:48:59 21° SE
SME Rocket 3.7 23:43:00 24° SE 23:45:44 53° ENE 23:49:37 10° N
Cosmos 1470 3.6 23:45:12 10° N 23:48:59 39° ENE 23:50:32 28° ESE
Terra 2.7 23:46:49 19° SSW 23:49:53 41° W 23:54:25 10° NNW
USA 267 3.9 23:44:43 10° ENE 23:50:27 31° SE 23:52:59 24° SSE
Nadezhda 3 Rocket 4.0 23:46:50 23° S 23:51:03 74° E 23:57:25 10° NNE
Cosmos 1758 Rocket 4.1 23:50:40 30° SE 23:52:14 44° E 23:56:24 10° NNE
Cosmos 1812 Rocket 4.4 23:48:49 10° NNW 23:53:07 45° W 23:55:42 22° SSW
H-2A R/B 3.3 23:52:19 19° SSW 23:55:04 36° W 23:59:16 10° NNW
PSLV R/B 4.5 23:56:05 24° SW 23:56:48 27° W 23:59:16 10° NW
